{"data":{"norad_id":68330,"epoch":"2026-09-19T05:36:57.264768Z","epoch_age_seconds":157749,"freshness":"FRESH","line1":"1 68330U 26059K   26262.23399612  .00014705  00000+0  44539-3 0  9999","line2":"2 68330  53.1563 167.4851 0001199  81.5059 278.6079 15.34406937 27836","mean_motion":15.34406937,"eccentricity":0.0001199,"inclination_deg":53.1563,"raan_deg":167.4851,"arg_perigee_deg":81.5059,"mean_anomaly_deg":278.6079,"bstar":0.00044539,"rev_number":2783,"period_min":93.847333798909,"perigee_km":461.86240778619,"apogee_km":463.50283633156,"semimajor_km":6840.8196220589,"source":"CELESTRAK","updated_at":"2026-09-20T09:00:43.885227Z"}}